User: anonymous
Location: Bangkok
(13.7500°N, 100.5170°E)
Time: 13:37:13
(UTC+07:00)
Language:

Cosmos 1898 Rocket - Orbit

View from above orbital plane
View from above orbital plane
View from above satellite
View from above satellite

Ground track
Ground track

The orbit data is extracted from the following two-line orbital elements,

1 18586U 87098B   14209.84637640  .00000121  00000-0  50132-4 0   848
2 18586 074.0068 076.4120 0020813 019.7386 059.6665 14.36435903395959
Epoch (UTC): 28 July 2014 20:18:46
Eccentricity: 0.0020813
inclination: 74.0068°
perigee height: 755 km
apogee height: 785 km
right ascension of ascending node: 76.4120°
argument of perigee: 19.7386°
revolutions per day: 14.36435903
mean anomaly at epoch: 59.6665°
orbit number at epoch: 39595

The dashed part of the orbit path shows where the satellite is in the earth's shadow,  

DLR